User: anonymous   Login
Location: Observatoire
(46.1952°N, 5.3391°E)
Time: 05:51:55
(UTC+02:00)
Language:

DUCHIFAT 1 - Orbit

View from above orbital plane
View from above orbital plane
View from above satellite
View from above satellite

Ground track
Ground track

The orbit data is extracted from the following two-line orbital elements,

1 40021U 14033M   24106.45013706  .00017356  00000-0  12235-2 0  9994
2 40021  98.0878  87.1767 0011583 320.6725  39.3658 15.05011378534689
Epoch (UTC): 15 April 2024 10:48:11
Eccentricity: 0.0011583
inclination: 98.0878°
perigee height: 543 km
apogee height: 559 km
right ascension of ascending node: 87.1767°
argument of perigee: 320.6725°
revolutions per day: 15.05011378
mean anomaly at epoch: 39.3658°
orbit number at epoch: 53468

The dashed part of the orbit path shows where the satellite is in the earth's shadow,  

DLR